C2862 Weather Reports


time (UTC)temp
C
wind
direction
speed
KPH
gust
KPH
rain 1hr
cm
rain 24hr
cm
rain mn
cm
humidity
%
barometer
mb
20260506120623 20 215 9.7 33.8 0.00 0.00 0.00 78 1006.8
20260506115603 20 124 9.7 27.4 0.00 0.00 0.00 78 1006.9
20260506114615 20 157 11.3 27.4 0.00 0.00 0.00 79 1007.1
20260506113638 19 114 6.4 22.5 0.00 0.00 0.00 80 1006.9
20260506112648 19 111 6.4 30.6 0.00 0.00 0.00 81 1006.9
20260506111620 19 0 8.0 30.6 0.00 0.00 0.00 81 1006.9
20260506110619 18 0 4.8 24.1 0.00 0.00 0.00 82 1006.9
20260506105551 18 114 3.2 22.5 0.00 0.00 0.00 82 1006.7
20260506104612 18 0 8.0 22.5 0.00 0.00 0.00 83 1006.8
20260506103631 18 0 4.8 20.9 0.00 0.00 0.00 84 1006.8
20260506102558 18 0 6.4 20.9 0.00 0.00 0.00 85 1006.7
20260506101529 18 0 1.6 8.0 0.00 0.00 0.00 85 1006.8
20260506100503 17 135 1.6 8.0 0.00 0.00 0.00 85 1006.6
20260506095507 17 103 0.0 1.6 0.00 0.00 0.00 85 1006.6
20260506094448 17 0 0.0 9.7 0.00 0.00 0.00 85 1006.6
20260506093458 18 0 1.6 9.7 0.00 0.00 0.00 85 1006.6
20260506092516 18 0 0.0 9.7 0.00 0.00 0.00 84 1006.6
20260506091539 18 0 1.6 12.9 0.00 0.00 0.00 84 1006.6
20260506090519 18 0 0.0 0.0 0.00 0.00 0.00 83 1006.7
20260506085504 18 134 0.0 9.7 0.00 0.00 0.00 83 1006.8
20260506084455 18 0 0.0 1.6 0.00 0.00 0.00 82 1006.8
20260506083518 18 109 0.0 6.4 0.00 0.00 0.00 82 1006.9
20260506082449 18 0 0.0 0.0 0.00 0.00 0.00 81 1006.9
20260506080344 18 0 0.0 9.7 0.00 0.00 0.00 80 1006.8
20260506071209 20 133 1.6 12.9 0.00 0.00 0.00 77 1006.8
20260506070216 20 121 3.2 16.1 0.00 0.00 0.00 76 1006.9
20260506062301 20 0 1.6 9.7 0.00 0.00 0.00 74 1007.1
20260506061229 20 124 3.2 19.3 0.00 0.00 0.00 73 1007.0
20260506051038 21 0 3.2 14.5 0.00 0.00 0.00 70 1007.5
20260506045013 21 0 8.0 19.3 0.00 0.00 0.00 69 1007.4
20260506044022 21 0 4.8 17.7 0.00 0.00 0.00 69 1007.5
20260506043008 21 0 3.2 12.9 0.00 0.00 0.00 68 1007.5
20260506042013 21 0 8.0 24.1 0.00 0.00 0.00 67 1007.4
20260506041022 21 0 6.4 24.1 0.00 0.00 0.00 67 1007.4
20260506035950 21 0 6.4 19.3 0.00 0.00 0.00 67 1007.3
20260506034956 21 0 6.4 19.3 0.00 0.00 0.00 66 1007.3
20260506034018 21 159 6.4 17.7 0.00 0.00 0.00 66 1007.4
20260506033029 21 115 6.4 19.3 0.00 0.00 0.00 65 1007.4
20260506032001 22 124 4.8 22.5 0.00 0.00 0.00 65 1007.4
20260506024643 22 141 4.8 22.5 0.00 0.00 0.00 63 1007.2
20260506023642 23 113 6.4 17.7 0.00 0.00 0.00 62 1007.3
20260506021604 23 113 3.2 24.1 0.00 0.00 0.00 58 1007.2
20260506020625 23 110 3.2 24.1 0.00 0.00 0.00 57 1007.1
20260506015628 24 111 6.4 20.9 0.00 0.00 0.00 55 1006.9
20260506014622 24 121 6.4 20.9 0.00 0.00 0.00 54 1006.9
20260506013605 25 0 8.0 20.9 0.00 0.00 0.00 53 1006.7
20260506010259 25 116 6.4 24.1 0.00 0.00 0.00 51 1006.2
20260506005316 25 94 6.4 22.5 0.00 0.00 0.00 50 1006.3
20260506004253 25 126 8.0 22.5 0.00 0.00 0.00 49 1006.2
20260506003235 26 115 6.4 22.5 0.00 0.00 0.00 47 1005.9
20260506001027 26 118 8.0 19.3 0.00 0.00 0.00 45 1005.8
20260506000010 26 132 8.0 27.4 0.00 0.00 0.00 44 1005.6
20260505235007 26 132 8.0 27.4 0.00 0.00 0.00 44 1005.7
20260505233934 26 136 9.7 24.1 0.00 0.00 0.00 43 1005.5
20260505232934 27 168 6.4 24.1 0.00 0.00 0.00 42 1005.4
20260505231945 27 140 8.0 20.9 0.00 0.00 0.00 41 1005.3
20260505231004 27 139 12.9 25.7 0.00 0.00 0.00 41 1005.2
20260505230028 27 124 11.3 25.7 0.00 0.00 0.00 40 1005.0
20260505225036 27 173 14.5 27.4 0.00 0.00 0.00 40 1005.0
20260505222912 28 145 9.7 32.2 0.00 0.00 0.00 40 1004.8
20260505221917 28 107 14.5 37.0 0.00 0.00 0.00 39 1004.8
20260505220912 28 109 12.9 41.8 0.00 0.00 0.00 39 1004.6
20260505215936 28 205 16.1 41.8 0.00 0.00 0.00 39 1004.7
20260505214902 28 131 9.7 32.2 0.00 0.00 0.00 40 1004.6
20260505213830 28 127 14.5 40.2 0.00 0.00 0.00 40 1004.4
20260505212856 28 140 17.7 40.2 0.00 0.00 0.00 39 1004.2
20260505211904 28 128 16.1 38.6 0.00 0.00 0.00 40 1004.3
20260505210905 28 137 16.1 33.8 0.00 0.00 0.00 40 1004.2
20260505203618 30 111 12.9 29.0 0.00 0.00 0.00 39 1004.3
20260505202555 29 105 16.1 37.0 0.00 0.00 0.00 39 1004.4
20260505201534 30 112 14.5 37.0 0.00 0.00 0.00 38 1004.5
20260505200530 30 98 14.5 35.4 0.00 0.00 0.00 38 1004.5
20260505195539 30 170 14.5 43.5 0.00 0.00 0.00 39 1004.5
20260505194512 30 110 16.1 43.5 0.00 0.00 0.00 39 1004.5
20260505193456 30 99 12.9 40.2 0.00 0.00 0.00 40 1004.7
20260505192436 30 106 12.9 40.2 0.00 0.00 0.00 39 1005.0
20260505191456 30 103 14.5 33.8 0.00 0.00 0.00 40 1005.1
20260505190446 30 80 16.1 40.2 0.00 0.00 0.00 39 1005.1
20260505185441 30 112 12.9 40.2 0.00 0.00 0.00 41 1005.2
20260505184413 30 101 12.9 38.6 0.00 0.00 0.00 41 1005.5
20260505183358 30 144 12.9 38.6 0.00 0.00 0.00 42 1005.7
20260505182407 30 171 12.9 33.8 0.00 0.00 0.00 43 1005.6
20260505181346 30 100 11.3 33.8 0.00 0.00 0.00 44 1005.6
20260505180402 30 99 14.5 33.8 0.00 0.00 0.00 43 1005.7
20260505173159 29 115 12.9 32.2 0.00 0.00 0.00 46 1006.1
20260505172209 30 105 9.7 32.2 0.00 0.00 0.00 46 1006.4
20260505171221 30 118 6.4 24.1 0.00 0.00 0.00 47 1006.5
20260505165123 28 105 9.7 24.1 0.00 0.00 0.00 49 1006.7
20260505164115 28 106 8.0 19.3 0.00 0.00 0.00 50 1006.8
20260505163115 28 119 6.4 19.3 0.00 0.00 0.00 50 1006.9
20260505162045 28 126 8.0 19.3 0.00 0.00 0.00 51 1007.1
20260505161102 27 130 4.8 20.9 0.00 0.00 0.00 51 1007.3
20260505153023 26 105 6.4 19.3 0.00 0.00 0.00 55 1007.9
20260505124341 18 98 3.2 12.9 0.00 0.00 0.00 77 1008.1
20260505123310 17 119 1.6 12.9 0.00 0.00 0.00 85 1008.2